Regional Weather Roundup
Issued by NWS

Current Version | Previous Version | Text Only | Print | Product List | Glossary On
Versions: 1 2 3 4 5 6 7 8 9 10 11 12 13 14 15 16 17 18 19 20 21 22 23 24 25 26 27
000
ASUS45 KPSR 222110
RWRAZ

ARIZONA HOURLY REGIONAL WEATHER ROUNDUP
NATIONAL WEATHER SERVICE PHOENIX AZ
200 PM MST SUN OCT 22 2017

NOTE: FAIR INDICATES FEW OR NO CLOUDS BELOW 12,000 FEET WITH NO
SIGNIFICANT WEATHER AND/OR OBSTRUCTIONS TO VISIBILITY.

AZZ001>003-036-222200-
NORTHWEST ARIZONA

CITY           SKY/WX    TMP DP  RH WIND       PRES   REMARKS
BULLHEAD CITY  SUNNY     86  19   8 N21G29    30.15F
KINGMAN        SUNNY     81  21  11 VRB5      30.29F
$$

AZZ004>008-015-016-018-222200-
NORTH CENTRAL ARIZONA

CITY           SKY/WX    TMP DP  RH WIND       PRES   REMARKS
GRAND CANYON   SUNNY     70  23  17 NW8       30.45F
WILLIAMS       SUNNY     72  25  17 VRB6      30.44S
PRESCOTT       SUNNY     77  20  12 N5        30.35F
FLAGSTAFF      SUNNY     69  18  14 E12       30.45F
PAYSON         SUNNY     75  10   8 SW8       30.34F
PAGE           SUNNY     67  17  14 VRB3      30.36F
$$

AZZ009>014-017-222200-
NORTHEAST ARIZONA

CITY           SKY/WX    TMP DP  RH WIND       PRES   REMARKS
WINSLOW        SUNNY     69   9   9 VRB3      30.38F
SAINT JOHNS    SUNNY     69  14  12 VRB5      30.38F
WINDOW ROCK    SUNNY     72  23  16 NW13      30.41F
SHOW LOW       SUNNY     68  12  11 N8        30.44S
$$

AZZ540-542>544-546-548-222200-
GREATER PHOENIX AREA

CITY           SKY/WX    TMP DP  RH WIND       PRES   REMARKS
PHOENIX        SUNNY     89  26  10 SW5       30.10F
BUCKEYE        SUNNY     88  82  84 S9        30.12F HX 108
GLENDALE       SUNNY     90  10   5 CALM      30.12F
LUKE AFB       SUNNY     88  16   7 N3        30.10F
DEER VALLEY    SUNNY     88  10   5 CALM      30.11F
SCOTTSDALE     SUNNY     90  15   6 VRB3      30.13F
MESA-FALCON    SUNNY     88  19   8 W5        30.12F
MESA-GATEWAY   SUNNY     88  21   8 W6        30.12F
CHANDLER       SUNNY     88  18   7 CALM      30.11F
$$

AZZ539-553-222200-
SOUTHWEST MARICOPA COUNTY AND PINAL COUNTY

CITY           SKY/WX    TMP DP  RH WIND       PRES   REMARKS
CASA GRANDE    NOT AVBL
$$

AZZ503-504-507>509-222200-
SOUTHEAST ARIZONA

CITY           SKY/WX    TMP DP  RH WIND       PRES   REMARKS
TUCSON         SUNNY     87  28  12 VRB6      30.17F
DAVIS-MONTHAN  SUNNY     88  25  10 VRB2      30.15F
NOGALES        SUNNY     86  23  10 VRB3      30.20F
SIERRA VISTA   SUNNY     82  19   9 CALM      30.28F
DOUGLAS        SUNNY     82  22  11 VRB5      30.24F
SAFFORD        SUNNY     81  13   7 VRB3      30.21F
$$

AZZ532-222200-
SOUTHWEST ARIZONA

CITY           SKY/WX    TMP DP  RH WIND       PRES   REMARKS
YUMA           SUNNY     90  17   7 N13       30.09F
$$

CAZ041-043-047-048-061-525>527-560>570-222200-
SOUTHERN CALIFORNIA

CITY           SKY/WX    TMP DP  RH WIND       PRES   REMARKS
DOWNTOWN L.A.  SUNNY     92  30  11 CALM      30.06F
L.A. AIRPORT   MOSUNNY   85  37  18 W10       30.07F
SAN DIEGO      MOSUNNY   81  48  31 NW9       30.07F
BURBANK        SUNNY     91  23   8 VRB3      30.09F
ONTARIO        MOSUNNY   91  23   8 VRB5      30.10F
RIVERSIDE      SUNNY     92  28  10 N9G20     30.10F
PALM SPRINGS   SUNNY     93  18   6 S3        30.14F
EL CENTRO NAS  SUNNY     90  14   6 VRB3      30.12F
IMPERIAL       SUNNY     89  19   7 N6        30.10F
BLYTHE         SUNNY     89  13   6 N8        30.13F
NEEDLES        SUNNY     90  16   6 NE13      30.17F
$$

NVZ020-UTZ003-222200-
SOUTHERN NEVADA-UTAH

CITY           SKY/WX    TMP DP  RH WIND       PRES   REMARKS
LAS VEGAS      SUNNY     79  24  13 CALM      30.27F
SALT LAKE CITY PTSUNNY   68  28  22 S14       30.31F
$$

NMZ009-TXZ055-222200-
NEW MEXICO-WEST TEXAS

CITY           SKY/WX    TMP DP  RH WIND       PRES   REMARKS
ALBUQUERQUE    MOSUNNY   64  14  14 VRB3      30.34F
EL PASO        MOSUNNY   76  13   9 VRB3      30.26F
$$


........................KEY........................
SKY/WX - SKY CONDITION/WEATHER
TMP    - TEMPERATURE IN FAHRENHEIT
DP     - DEW POINT IN FAHRENHEIT
RH     - RELATIVE HUMIDITY IN PERCENT
WIND   - DIRECTION AND SPEED IN MILES PER HOUR (MPH)
VRB    - VARIABLE WIND DIRECTION
PRES   - MEAN SEA LEVEL PRESSURE IN INCHES OF MERCURY
         F - FALLING PRESSURE   R - RISING PRESSURE
         S - STEADY PRESSURE
VSB    - VISIBILITY IN MILES
HX     - HEAT INDEX IN FAHRENHEIT
WCI    - WIND CHILL INDEX IN FAHRENHEIT
TC     - TEMPERATURE IN CELSIUS WHICH IS ALSO KNOWN AS
         TEMPERATURE IN CENTIGRADE
AFB    - AIR FORCE BASE
         LUKE AFB IS LUKE AIR FORCE BASE
         DAVIS-MONTHAN IS DAVIS-MONTHAN AIR FORCE BASE
NAS    - NAVAL AIR STATION
         EL CENTRO NAS IS EL CENTRO NAVAL AIR STATION
N/A    - NOT AVAILABLE





USA.gov is the U.S. government's official web portal to all federal, state and local government web resources and services.